sat.trackr.live / text

‹ back to catalog

ORBCOMM FM114

NORAD 41179 · 2015-081A

PAYLOAD ACTIVE UNKNOWN

§ Identity

Operator
Country
ORB
Launch date
2015-12-22
Launch site
AFETR
Launch vehicle
Mass (kg)
RCS (m²)
0.56

Purposes: comms

External: N2YO · Heavens-Above · Gunter

§ Orbital elements

Epoch: 2026-05-25T04:07:55.989120Z

Period
98.71 min
Inclination
47.0038°
Eccentricity
0.0001316
Mean motion
14.58825699 rev/d
Perigee alt
696.0 km
Apogee alt
697.9 km
Semi-major
7,075.1 km
B*
9.1890e-5
RAAN
110.8128°
Arg perigee
82.6624°
Mean anomaly
277.4411°
Rev number
55,439

§ Raw data

ORBCOMM FM1141 41179U 15081A   26145.17217580  .00000263  00000+0  91890-4 0  99972 41179  47.0038 110.8128 0001316  82.6624 277.4411 14.58825699554395

JSON: /api/v1/satellites/41179 · /tle

For live sub-satellite position, see the globe view (requires WebGL).

§ Visibility from observer

Set your observer location to see the next 7 days of passes ≥ 10°. The values pass through the URL so the page stays shareable.

No JS? Fill the form by hand. The geolocation button needs JavaScript.

§ Radio — SatNOGS DB

ModeDescriptionDownlinkUplink
FM Telemetry 137.288 MHz
FM Telemetry 137.740 MHz

2 transmitters · refreshed weekly from db.satnogs.org